Regional Weather Roundup
Issued by NWS Upton, NY

Home | Current Version | Previous Version | Text Only | Print | Product List | Glossary On
Versions: 1 2 3 4 5 6 7 8 9 10 11 12 13 14 15 16 17 18 19 20 21 22 23 24 25 26 27 28 29 30 31 32 33 34 35 36 37 38 39 40 41 42 43 44 45 46 47 48 49 50
000
ASUS41 KOKX 311104
RWROKX

REGIONAL WEATHER ROUNDUP
NATIONAL WEATHER SERVICE NEW YORK NY
700 AM EDT MON AUG 31 2015

NOTE: "FAIR" INDICATES FEW OR NO CLOUDS BELOW 12,000 FEET WITH NO
SIGNIFICANT WEATHER AND/OR OBSTRUCTIONS TO VISIBILITY.

NYZ071-072-176-178-NJZ106-104-311200-
NEW YORK CITY METRO AREA


CITY           SKY/WX    TMP DP  RH WIND       PRES   REMARKS
CENTRAL PARK   MOCLDY    76  67  73 CALM      30.06R
LAGUARDIA APRT MOCLDY    78  66  66 W6        30.02R
KENNEDY INTL   MOCLDY    76  68  76 SW10      30.04R
NEWARK/LIBERTY MOCLDY    75  68  78 SW7       30.03R
BRNX BOT. GARD   N/A     75  66  73 SW8       30.03R
TETERBORO      MOCLDY    74  66  76 CALM      30.02R
$$

NYZ177-179-078>081-311200-
LONG ISLAND NEW YORK

CITY           SKY/WX    TMP DP  RH WIND       PRES   REMARKS
FARMINGDALE    MOCLDY    75  67  76 SW5       30.03R
ISLIP          MOCLDY    73  68  84 SW6       30.01R
SHIRLEY        CLOUDY    74  69  85 SW5       30.03R
WESTHAMPTON    CLOUDY    74  70  87 SW6       30.03R
MONTAUK POINT    N/A     75  69  81 VRB5      30.02R
$$

NYZ052-065-067-311200-
HUDSON VALLEY

CITY           SKY/WX    TMP DP  RH WIND       PRES   REMARKS
WHITE PLAINS   MOCLDY    73  67  81 W3        30.03R
NEWBURGH       MOCLDY    68  68 100 W7        30.03S
MONTGOMERY     MOCLDY    68  66  93 SW3       30.04R FOG
POUGHKEEPSIE   PTCLDY    66  63  90 CALM      30.02R
ALBANY         PTCLDY    65  63  93 CALM      30.01R FOG
$$

NJZ001-105-106-008-010-013-015-019>022-104-311200-
NEW JERSEY

CITY           SKY/WX    TMP DP  RH WIND       PRES   REMARKS
NEWARK/LIBERTY MOCLDY    75  68  78 SW7       30.03R
TETERBORO      MOCLDY    74  66  76 CALM      30.02R
CALDWELL       MOCLDY    72  66  81 CALM      30.04R
MORRISTOWN     PTCLDY    70  68  94 CALM      30.04R
SOMERVILLE     MOCLDY    69  66  90 CALM      30.03R FOG
SUSSEX         MOCLDY    65  64  97 CALM      30.05R FOG
ANDOVER          N/A     66  66 100 CALM      30.06R
TRENTON        CLOUDY    74  68  81 SW5       30.05R
MILLVILLE      CLOUDY    73  68  84 CALM      30.07R
ATLANTIC CITY  CLOUDY    74  69  85 CALM      30.07R
WRIGHTSTOWN    LGT RAIN  72  68  87 SW3       30.03R
TOMS RIVER     CLOUDY    70  66  88 CALM      30.06R
BELMAR         CLOUDY    73  63  68 W7        30.06R
$$

PAZ047>061-062-071-311200-
EASTERN PENNSYLVANIA

CITY           SKY/WX    TMP DP  RH WIND       PRES   REMARKS
PHILADELPHIA   CLOUDY    76  67  73 SW8       30.06R
ALLENTOWN      CLOUDY    69  66  90 CALM      30.06R FOG
SCRANTON       MOCLDY    66  63  90 CALM      30.08R FOG
$$

CTZ002-004>006-009-010-012-RIZ004-006-007-MAZ004-011-015-311200-
SOUTHERN NEW ENGLAND
 IN CT

CITY           SKY/WX    TMP DP  RH WIND       PRES   REMARKS
BRADLEY INTL   MOCLDY    66  64  93 CALM      29.99R FOG
HARTFORD       MOCLDY    70  68  93 S3        30.00R
DANBURY        MOCLDY    68  63  84 CALM      30.04R HAZE
WTRBRY/OXFORD  PTCLDY    70  63  78 CALM      30.05R FOG
BRIDGEPORT     MOCLDY    74  68  81 W3        30.01R
MERIDEN        MOCLDY    68  65  90 CALM      30.01R FOG
NEW HAVEN      MOCLDY    74  68  81 W3        30.01R
CHESTER        NOT AVBL
GROTON         MOCLDY    74  71  91 W6        30.00R
WILLIMANTIC    FOG       67  65  93 CALM      30.01R VSB<1/4

 IN RI

CITY           SKY/WX    TMP DP  RH WIND       PRES   REMARKS
PROVIDENCE     MOCLDY    71  68  90 W7        29.99R
BLOCK ISLAND   MOCLDY    72  70  94 W10       30.01R
WESTERLY       MOCLDY    70  67  90 CALM      30.01R

 IN MA

CITY           SKY/WX    TMP DP  RH WIND       PRES   REMARKS
BOSTON         MOCLDY    74  65  73 W9        29.97S
WORCESTER      PTCLDY    67  64  90 W7        30.02R
WESTFIELD      PTCLDY    64  62  93 CALM      30.00R FOG
PROVINCETOWN     N/A     70  63  78 SW7       29.98R
NANTUCKET      MOCLDY    73  70  90 W10       29.99S
$$

ANZ330-335-338-340-345-350-353-355-311200-
COASTAL MARINE OBSERVATIONS


STATION/POSITION TIME  SKY/WX   TEMP    WIND        PRES    VSBY  WAVE
                                AIR SEA DIR/SP/G                  HT/PER
                 (UTC)          (F)     (DEG/KT/KT) (MB)    (MI)  (FT/S)
NY HARB ENTRANCE 0950            75 76  240/ 14/ 17 1016.2          3/ 9
4S FIRE IS       NOT AVBL
20S FIRE ISLAND  0950            75 74  240/ 16/ 17 1016.3          4/ 5
GREAT SOUTH BAY  1000            76 77  250/ 14/ 16   N/A
23SW MTP         1050            75 72  250/ 16/ 17 1015.8          4/ 6
HUDSON CANYON    NOT AVBL
KINGS POINT      NOT AVBL
EXECUTION ROCKS  1000            76     230/  8/ 10   N/A
CENTRAL LI SOUND NOT AVBL
EASTERN LI SOUND 1000            73 71  260/  6/  8   N/A
ROBBINS REEF     NOT AVBL
$$


>>>>>>>>>>>>>>>>>>>>>>>>>>>> KEY <<<<<<<<<<<<<<<<<<<<<<<<<<<
>                                                          <
>     SKY/WX - SKY CONDITION/PRESENT WEATHER               <
>     TMP    - TEMPERATURE IN FAHRENHEIT                   <
>     DP     - DEWPOINT IN FAHRENHEIT                      <
>     RH     - RELATIVE HUMIDITY IN PERCENT                <
>     WIND   - DIRECTION AND SPEED IN MPH                  <
>     PRES   - MEAN SEA LEVEL PRESSURE IN INCHES OF HG     <
>     WCI    - WIND CHILL INDEX                            <
>     VSB    - VISIBILITY IN MILES                         <
>     HX     - HEAT INDEX                                  <
>     TC     - TEMPERATURE IN CELSIUS                      <
>     VRB    - VARIABLE WIND DIRECTION                     <
>                                                          <
>>>>>>>>>>>>>>>>>>>>>>>>>>>> KEY <<<<<<<<<<<<<<<<<<<<<<<<<<<





USA.gov is the U.S. government's official web portal to all federal, state and local government web resources and services.